This demonstration page uses our WeatherBlox Daily Observations layout. Learn more.

Left ArrowRight Arrow

39.01783, -85.05884

Hourly Observations for September 22, 2020

Temp ( °F °C ) Dew Point ( °F °C ) Humidity (%) Winds ( mph kmh ) Pressure ( in mb ) Visibility ( mi km ) Precip ( " mm )
12:52 am 00:52 Clear 54 12.2 45 7.2 72 72 S 6 9 30.29 1026 10 16 0.00 0.00
1:52 am 01:52 Clear 56 13.3 45 7.2 67 67 SSE 3 6 30.28 1025 10 16 0.00 0.00
2:52 am 02:52 Clear 54 12.2 44 6.7 69 69 Calm 30.27 1025 10 16 0.00 0.00
3:52 am 03:52 Clear 53 11.7 44 6.7 72 72 Calm 30.26 1025 10 16 0.00 0.00
4:52 am 04:52 Clear 49 9.4 43 6.1 80 80 Calm 30.26 1025 10 16 0.00 0.00
5:52 am 05:52 Clear 50 10 45 7.2 83 83 Calm 30.27 1025 10 16 0.00 0.00
6:52 am 06:52 Mostly Clear with Patchy Fog 50 10 46 7.8 86 86 Calm 30.27 1025 8 13 0.00 0.00
7:52 am 07:52 Mostly Cloudy with Mist and Fog 49 9.4 45 7.2 86 86 Calm 30.28 1025 6 10 0.00 0.00
8:52 am 08:52 Partly Cloudy 56 13.3 48 8.9 75 75 Calm 30.28 1025 8 13 0.00 0.00
9:52 am 09:52 Partly Cloudy 61 16.1 48 8.9 63 63 Calm 30.27 1025 10 16 0.00 0.00
10:52 am 10:52 Partly Cloudy 66 18.9 48 8.9 52 52 Calm 30.28 1025 10 16 0.00 0.00
11:52 am 11:52 Mostly Cloudy 69 20.6 49 9.4 49 49 VRB 3 6 30.26 1025 10 16 0.00 0.00
12:52 pm 12:52 Mostly Cloudy 70 21.1 46 7.8 42 42 ESE 3 6 30.24 1024 10 16 0.00 0.00
1:52 pm 13:52 Mostly Cloudy 73 22.8 42 5.6 33 33 VRB 3 6 30.21 1023 10 16 0.00 0.00
2:52 pm 14:52 Mostly Cloudy 74 23.3 41 5 31 31 Calm 30.18 1022 10 16 0.00 0.00
3:52 pm 15:52 Mostly Cloudy 73 22.8 40 4.4 30 30 Calm 30.16 1021 10 16 0.00 0.00
4:52 pm 16:52 Mostly Cloudy 74 23.3 41 5 31 31 Calm 30.14 1021 10 16 0.00 0.00
5:52 pm 17:52 Mostly Cloudy 73 22.8 45 7.2 37 37 WSW 5 7 30.13 1020 10 16 0.00 0.00
6:52 pm 18:52 Cloudy 71 21.7 46 7.8 41 41 Calm 30.12 1020 10 16 0.00 0.00
7:52 pm 19:52 Cloudy 66 18.9 47 8.3 50 50 SW 6 9 30.12 1020 10 16 0.00 0.00
8:52 pm 20:52 Cloudy 61 16.1 48 8.9 63 63 SW 3 6 30.13 1020 10 16 0.00 0.00
9:52 pm 21:52 Mostly Cloudy 61 16.1 50 10 67 67 SW 5 7 30.12 1020 10 16 0.00 0.00
10:52 pm 22:52 Mostly Cloudy 57 13.9 51 10.6 81 81 SW 3 6 30.11 1020 10 16 0.00 0.00
11:52 pm 23:52 Mostly Cloudy 57 13.9 52 11.1 83 83 SW 3 6 30.11 1020 10 16 0.00 0.00

Powered by AerisWeather